STARLINK-32269, 60377

Orbit data source: Space-Track

STARLINK-32269, 60377 is a payload satellite owned by SpaceX/Seattle (US) in LEO that was launched on Sun, 04 Aug 2024 UTC via an FALCON 9 launch vehicle from the Air Force Western Test Range (AFWTR). Payload-class satellites include a variety of spacecraft equipped with specific instruments for various scientific and technological missions. These include communications satellites like Starlink; space stations such as the ISS; scientific satellites like the Hubble; Earth observation satellites from companies like Planet Labs, Umbra, and HawkEye 360; GPS; miniature CubeSats for education and research; and military/defense satellites.

Loading next visibility...
Identifier
60377, 2024-138Y
Orbit
LEO
Country
Flag of USUS
Related business
Manufacturer
SpaceX/Seattle
Mission
Operational Commercial Communications
Bus & Motor
STARLINK V2M, Unknown motor
Mass
730 kg wet, ~700 kg dry
Launch date (UTC)
2024-08-04 (1 year ago)
Launch vehicle
FALCON 9
Launch site
Air Force Western Test Range (AFWTR)
Object type
Payload
Rocket body
Debris
Shape & HBR
Box + 2 Pan, 17.7 m
Radar Cross Section
33.884 m², Large (>1 m²)

Expand to show TLE details & history
Last TLE update: 17 hours ago

TLE from 17 hours ago
0 STARLINK-32269
1 60377U 24138Y   25353.65294224 -.00001216  00000-0 -28946-4 0  9998
2 60377  53.1628 321.3568 0001379 108.8227 251.2924 15.30190056 78376
Epoch: 2025-12-19T15:40Z
TLE epoch observation values (Epoch: 2025-12-19T15:40:14.209Z)
Latitude
0.00002°
Longitude
-2.1934°
Altitude
476.448 km
Speed
7.629 km/s
True Right ascension
21h 25m 25s
True Declination
0° 00' 00"
Sunlit
Object was in daylight at epoch
Visualization orbit readout
Latitude
Unknown
Longitude
Unknown
Altitude
Unknown
Speed
Unknown
Apparent Right ascension
Unknown
Apparent Declination
Unknown
Sunlit
N/A
Visualization observer readout
Local Sidereal Time
07:55:08
Azimuth
Unknown
Elevation
Unknown
Doppler factor
Unknown
Orbital elements
Apogee altitude
476.446 km
Perigee altitude
474.556 km
Semi-major axis
6,853.638 km
Eccentricity
0.00014
Inclination
53.1628°
RAAN
321.3568°
Arg. of periapsis
108.8227°
True anomaly
251.27743°
Mean anomaly
251.2924°
Eccentric anomaly
251.28492°
Mean motion
3.82526 °/min
Orbital period
94.11 mins
BSTAR
-0.000028946
Loading maneuver chart data...
Computing Atmospheric mass density...
Loading historical data...
Loading historical data...
Loading historical data...
Loading historical data...
Loading historical data...
Loading historical data...
Loading historical data...

Documentation

Showing up to 5 results
|